Time,TemperatureF,DewpointF,PressureIn,WindDirection,WindDirectionDegrees,WindSpeedMPH,WindSpeedGustMPH,Humidity,HourlyPrecipIn,Conditions,Clouds,dailyrainin,SolarRadiationWatts/m^2,SoftwareType,DateUTC
2013-09-01 00:00:00,62.6,54.9,29.84,NNE,19,4.0,4.0,76,0.00,,---,0.00,0.00,VWS V14.01,2013-09-01 07:00:00,
2013-09-01 00:08:00,61.1,54.5,29.84,NNE,19,4.0,4.0,79,0.00,,---,0.00,0.00,VWS V14.01,2013-09-01 07:08:00,
2013-09-01 00:13:00,61.0,54.5,29.84,NNE,19,4.0,4.0,79,0.00,,---,0.00,0.00,VWS V14.01,2013-09-01 07:13:00,
2013-09-01 00:18:00,60.9,54.3,29.84,NNE,19,4.0,4.0,79,0.00,,---,0.00,0.00,VWS V14.01,2013-09-01 07:18:00,
2013-09-01 00:23:00,60.8,54.6,29.84,NNE,19,4.0,4.0,80,0.00,,---,0.00,0.00,VWS V14.01,2013-09-01 07:23:00,
2013-09-01 00:28:00,60.8,54.6,29.85,NNE,19,4.0,4.0,80,0.00,,---,0.00,0.00,VWS V14.01,2013-09-01 07:28:00,
2013-09-01 00:30:00,60.8,54.6,29.85,NNE,19,4.0,4.0,80,0.00,,---,0.00,0.00,VWS V14.01,2013-09-01 07:30:00,
2013-09-01 00:33:00,60.7,54.5,29.85,NNE,19,4.0,4.0,80,0.00,,---,0.00,0.00,VWS V14.01,2013-09-01 07:33:00,
2013-09-01 00:38:00,60.5,54.7,29.85,NNE,19,4.0,4.0,81,0.00,,---,0.00,0.00,VWS V14.01,2013-09-01 07:38:00,
2013-09-01 00:43:00,60.5,54.3,29.85,NNE,19,4.0,4.0,80,0.00,,---,0.00,0.00,VWS V14.01,2013-09-01 07:43:00,
2013-09-01 00:53:00,60.3,54.5,29.84,NNE,19,4.0,4.0,81,0.00,,---,0.00,0.00,VWS V14.01,2013-09-01 07:53:00,
2013-09-01 00:58:00,60.2,54.4,29.84,NNE,19,4.0,4.0,81,0.00,,---,0.00,0.00,VWS V14.01,2013-09-01 07:58:00,
2013-09-01 01:00:00,60.2,54.4,29.84,NNE,19,4.0,4.0,81,0.00,,---,0.00,0.00,VWS V14.01,2013-09-01 08:00:00,
2013-09-01 01:03:00,60.1,54.3,29.84,NNE,19,4.0,4.0,81,0.00,,---,0.00,0.00,VWS V14.01,2013-09-01 08:03:00,
2013-09-01 01:08:00,59.9,54.1,29.84,NNE,19,4.0,4.0,81,0.00,,---,0.00,0.00,VWS V14.01,2013-09-01 08:08:00,
2013-09-01 01:13:00,59.8,54.0,29.84,NNE,19,4.0,4.0,81,0.00,,---,0.00,0.00,VWS V14.01,2013-09-01 08:13:00,
2013-09-01 01:18:00,59.7,53.9,29.84,NNE,19,4.0,4.0,81,0.00,,---,0.00,0.00,VWS V14.01,2013-09-01 08:18:00,
2013-09-01 01:23:00,59.6,53.8,29.84,NNE,19,4.0,4.0,81,0.00,,---,0.00,0.00,VWS V14.01,2013-09-01 08:23:00,
2013-09-01 01:28:00,59.5,54.0,29.84,NNE,19,4.0,4.0,82,0.00,,---,0.00,0.00,VWS V14.01,2013-09-01 08:28:00,
2013-09-01 01:30:00,59.5,54.0,29.84,NNE,19,4.0,4.0,82,0.00,,---,0.00,0.00,VWS V14.01,2013-09-01 08:30:00,
2013-09-01 01:33:00,59.3,53.8,29.84,NNE,19,4.0,4.0,82,0.00,,---,0.00,0.00,VWS V14.01,2013-09-01 08:33:00,
2013-09-01 01:38:00,59.2,53.7,29.83,NNE,19,4.0,4.0,82,0.00,,---,0.00,0.00,VWS V14.01,2013-09-01 08:38:00,
2013-09-01 01:43:00,59.0,53.5,29.84,NNE,19,4.0,4.0,82,0.00,,---,0.00,0.00,VWS V14.01,2013-09-01 08:43:00,
2013-09-01 01:48:00,59.0,53.5,29.84,NNE,19,4.0,4.0,82,0.00,,---,0.00,0.00,VWS V14.01,2013-09-01 08:48:00,
2013-09-01 01:53:00,59.0,53.5,29.84,NNE,19,4.0,4.0,82,0.00,,---,0.00,0.00,VWS V14.01,2013-09-01 08:53:00,
2013-09-01 01:58:00,59.0,53.5,29.84,NNE,19,4.0,4.0,82,0.00,,---,0.00,0.00,VWS V14.01,2013-09-01 08:58:00,
2013-09-01 02:00:00,59.0,53.5,29.84,NNE,19,4.0,4.0,82,0.00,,---,0.00,0.00,VWS V14.01,2013-09-01 09:00:00,
2013-09-01 02:03:00,59.0,53.5,29.84,NNE,19,4.0,4.0,82,0.00,,---,0.00,0.00,VWS V14.01,2013-09-01 09:03:00,
2013-09-01 02:07:00,59.0,53.5,29.84,NNE,19,4.0,4.0,82,0.00,,---,0.00,0.00,VWS V14.01,2013-09-01 09:07:00,
2013-09-01 02:12:00,59.0,53.5,29.85,NNE,19,4.0,4.0,82,0.00,,---,0.00,0.00,VWS V14.01,2013-09-01 09:12:00,
2013-09-01 02:17:00,59.0,53.8,29.85,NNE,19,4.0,4.0,83,0.00,,---,0.00,0.00,VWS V14.01,2013-09-01 09:17:00,
2013-09-01 02:22:00,59.0,53.8,29.85,NNE,19,4.0,4.0,83,0.00,,---,0.00,0.00,VWS V14.01,2013-09-01 09:22:00,
2013-09-01 02:27:00,59.3,53.8,29.85,NNE,19,4.0,4.0,82,0.00,,---,0.00,0.00,VWS V14.01,2013-09-01 09:27:00,
2013-09-01 02:30:00,59.2,54.0,29.85,NNE,19,4.0,4.0,83,0.00,,---,0.00,0.00,VWS V14.01,2013-09-01 09:30:00,
2013-09-01 02:32:00,59.3,53.8,29.84,NNE,19,4.0,4.0,82,0.00,,---,0.00,0.00,VWS V14.01,2013-09-01 09:32:00,
2013-09-01 02:37:00,59.3,53.8,29.85,NNE,19,4.0,4.0,82,0.00,,---,0.00,0.00,VWS V14.01,2013-09-01 09:37:00,
2013-09-01 02:42:00,59.1,53.6,29.85,NNE,19,4.0,4.0,82,0.00,,---,0.00,0.00,VWS V14.01,2013-09-01 09:42:00,
2013-09-01 02:47:00,59.0,53.5,29.85,NNE,19,4.0,4.0,82,0.00,,---,0.00,0.00,VWS V14.01,2013-09-01 09:47:00,
2013-09-01 02:52:00,59.0,53.5,29.84,NNE,19,4.0,4.0,82,0.00,,---,0.00,0.00,VWS V14.01,2013-09-01 09:52:00,
2013-09-01 02:57:00,59.0,53.5,29.85,NNE,19,4.0,4.0,82,0.00,,---,0.00,0.00,VWS V14.01,2013-09-01 09:57:00,
2013-09-01 03:00:00,59.0,53.5,29.85,NNE,19,4.0,4.0,82,0.00,,---,0.00,0.00,VWS V14.01,2013-09-01 10:00:00,
2013-09-01 03:02:00,59.0,53.5,29.85,NNE,19,4.0,4.0,82,0.00,,---,0.00,0.00,VWS V14.01,2013-09-01 10:02:00,
2013-09-01 03:07:00,59.0,53.5,29.85,NNE,19,4.0,4.0,82,0.00,,---,0.00,0.00,VWS V14.01,2013-09-01 10:07:00,
2013-09-01 03:12:00,59.0,53.5,29.85,NNE,19,4.0,4.0,82,0.00,,---,0.00,0.00,VWS V14.01,2013-09-01 10:12:00,
2013-09-01 03:17:00,58.9,53.8,29.86,NNE,19,4.0,4.0,83,0.00,,---,0.00,0.00,VWS V14.01,2013-09-01 10:17:00,
2013-09-01 03:22:00,59.0,53.8,29.86,NNE,19,4.0,4.0,83,0.00,,---,0.00,0.00,VWS V14.01,2013-09-01 10:22:00,
2013-09-01 03:27:00,59.0,53.8,29.86,NNE,19,4.0,4.0,83,0.00,,---,0.00,0.00,VWS V14.01,2013-09-01 10:27:00,
2013-09-01 03:30:00,59.0,53.8,29.86,NNE,19,4.0,4.0,83,0.00,,---,0.00,0.00,VWS V14.01,2013-09-01 10:30:00,
2013-09-01 03:32:00,59.0,53.8,29.86,NNE,19,4.0,4.0,83,0.00,,---,0.00,0.00,VWS V14.01,2013-09-01 10:32:00,
2013-09-01 03:37:00,59.0,53.8,29.86,NNE,19,4.0,4.0,83,0.00,,---,0.00,0.00,VWS V14.01,2013-09-01 10:37:00,
2013-09-01 03:42:00,59.0,53.8,29.86,NNE,19,4.0,4.0,83,0.00,,---,0.00,0.00,VWS V14.01,2013-09-01 10:42:00,
2013-09-01 03:47:00,59.0,53.8,29.86,NNE,19,4.0,4.0,83,0.00,,---,0.00,0.00,VWS V14.01,2013-09-01 10:47:00,
2013-09-01 03:52:00,59.0,53.8,29.86,NNE,19,4.0,4.0,83,0.00,,---,0.00,0.00,VWS V14.01,2013-09-01 10:52:00,
2013-09-01 03:57:00,59.0,53.8,29.86,NNE,19,4.0,4.0,83,0.00,,---,0.00,0.00,VWS V14.01,2013-09-01 10:57:00,
2013-09-01 04:00:00,59.0,53.8,29.86,NNE,19,4.0,4.0,83,0.00,,---,0.00,0.00,VWS V14.01,2013-09-01 11:00:00,
2013-09-01 04:02:00,59.0,53.8,29.86,NNE,19,4.0,4.0,83,0.00,,---,0.00,0.00,VWS V14.01,2013-09-01 11:02:00,
2013-09-01 04:07:00,59.0,53.8,29.86,NNE,19,4.0,4.0,83,0.00,,---,0.00,0.00,VWS V14.01,2013-09-01 11:07:00,
2013-09-01 04:12:00,59.0,53.8,29.86,NNE,19,4.0,4.0,83,0.00,,---,0.00,0.00,VWS V14.01,2013-09-01 11:12:00,
2013-09-01 04:17:00,59.0,53.5,29.86,NNE,19,4.0,4.0,82,0.00,,---,0.00,0.00,VWS V14.01,2013-09-01 11:17:00,
2013-09-01 04:22:00,59.0,53.5,29.85,NNE,19,4.0,4.0,82,0.00,,---,0.00,0.00,VWS V14.01,2013-09-01 11:22:00,
2013-09-01 04:27:00,59.0,53.5,29.86,NNE,19,4.0,4.0,82,0.00,,---,0.00,0.00,VWS V14.01,2013-09-01 11:27:00,
2013-09-01 04:30:00,59.0,53.5,29.85,NNE,19,4.0,4.0,82,0.00,,---,0.00,0.00,VWS V14.01,2013-09-01 11:30:00,
2013-09-01 04:32:00,58.7,53.2,29.86,NNE,19,4.0,4.0,82,0.00,,---,0.00,0.00,VWS V14.01,2013-09-01 11:32:00,
2013-09-01 04:37:00,58.6,53.1,29.86,NNE,19,4.0,4.0,82,0.00,,---,0.00,0.00,VWS V14.01,2013-09-01 11:37:00,
2013-09-01 04:42:00,58.4,53.3,29.86,NNE,19,4.0,4.0,83,0.00,,---,0.00,0.00,VWS V14.01,2013-09-01 11:42:00,
2013-09-01 04:47:00,58.2,53.1,29.85,NNE,19,4.0,4.0,83,0.00,,---,0.00,0.00,VWS V14.01,2013-09-01 11:47:00,
2013-09-01 04:52:00,58.1,53.0,29.85,NNE,19,4.0,4.0,83,0.00,,---,0.00,0.00,VWS V14.01,2013-09-01 11:52:00,
2013-09-01 04:57:00,58.0,52.9,29.86,NNE,19,4.0,4.0,83,0.00,,---,0.00,0.00,VWS V14.01,2013-09-01 11:57:00,
2013-09-01 05:00:00,58.0,52.9,29.86,NNE,19,4.0,4.0,83,0.00,,---,0.00,0.00,VWS V14.01,2013-09-01 12:00:00,
2013-09-01 05:02:00,57.9,52.8,29.86,NNE,19,4.0,4.0,83,0.00,,---,0.00,0.00,VWS V14.01,2013-09-01 12:02:00,
2013-09-01 05:07:00,57.8,52.7,29.85,NNE,19,4.0,4.0,83,0.00,,---,0.00,0.00,VWS V14.01,2013-09-01 12:07:00,
2013-09-01 05:12:00,57.7,52.9,29.86,NNE,19,4.0,4.0,84,0.00,,---,0.00,0.00,VWS V14.01,2013-09-01 12:12:00,
2013-09-01 05:17:00,57.6,52.8,29.86,NNE,19,4.0,4.0,84,0.00,,---,0.00,0.00,VWS V14.01,2013-09-01 12:17:00,
2013-09-01 05:22:00,57.5,52.7,29.86,NNE,19,4.0,4.0,84,0.00,,---,0.00,0.00,VWS V14.01,2013-09-01 12:22:00,
2013-09-01 05:27:00,57.5,52.7,29.86,NNE,19,4.0,4.0,84,0.00,,---,0.00,0.00,VWS V14.01,2013-09-01 12:27:00,
2013-09-01 05:30:00,57.5,52.7,29.86,NNE,19,4.0,4.0,84,0.00,,---,0.00,0.00,VWS V14.01,2013-09-01 12:30:00,
2013-09-01 05:32:00,57.5,52.7,29.86,NNE,19,4.0,4.0,84,0.00,,---,0.00,0.00,VWS V14.01,2013-09-01 12:32:00,
2013-09-01 05:37:00,57.5,53.0,29.87,NNE,19,4.0,4.0,85,0.00,,---,0.00,0.00,VWS V14.01,2013-09-01 12:37:00,
2013-09-01 05:42:00,57.5,53.0,29.86,NNE,19,4.0,4.0,85,0.00,,---,0.00,0.00,VWS V14.01,2013-09-01 12:42:00,
2013-09-01 05:47:00,57.6,53.1,29.87,NNE,19,4.0,4.0,85,0.00,,---,0.00,0.00,VWS V14.01,2013-09-01 12:47:00,
2013-09-01 05:52:00,57.7,53.2,29.87,NNE,19,4.0,4.0,85,0.00,,---,0.00,0.00,VWS V14.01,2013-09-01 12:52:00,
2013-09-01 05:57:00,57.7,53.2,29.87,NNE,19,4.0,4.0,85,0.00,,---,0.00,0.00,VWS V14.01,2013-09-01 12:57:00,
2013-09-01 06:00:00,57.7,53.2,29.87,NNE,19,4.0,4.0,85,0.00,,---,0.00,0.00,VWS V14.01,2013-09-01 13:00:00,
2013-09-01 06:02:00,57.7,53.2,29.87,NNE,19,4.0,4.0,85,0.00,,---,0.00,0.00,VWS V14.01,2013-09-01 13:02:00,
2013-09-01 06:07:00,57.6,53.1,29.87,NNE,19,4.0,4.0,85,0.00,,---,0.00,0.00,VWS V14.01,2013-09-01 13:07:00,
2013-09-01 06:12:00,57.5,53.0,29.87,NNE,19,4.0,4.0,85,0.00,,---,0.00,0.00,VWS V14.01,2013-09-01 13:12:00,
2013-09-01 06:17:00,57.5,53.0,29.87,NNE,19,4.0,4.0,85,0.00,,---,0.00,0.00,VWS V14.01,2013-09-01 13:17:00,
2013-09-01 06:22:00,57.4,52.9,29.87,NNE,19,4.0,4.0,85,0.00,,---,0.00,0.00,VWS V14.01,2013-09-01 13:22:00,
2013-09-01 06:27:00,57.4,52.9,29.87,NNE,19,4.0,4.0,85,0.00,,---,0.00,0.00,VWS V14.01,2013-09-01 13:27:00,
2013-09-01 06:30:00,57.4,52.9,29.87,NNE,19,4.0,4.0,85,0.00,,---,0.00,0.00,VWS V14.01,2013-09-01 13:30:00,
2013-09-01 06:32:00,57.4,53.2,29.87,NNE,19,4.0,4.0,86,0.00,,---,0.00,0.00,VWS V14.01,2013-09-01 13:32:00,
2013-09-01 06:37:00,57.4,53.2,29.87,NNE,19,4.0,4.0,86,0.00,,---,0.00,0.00,VWS V14.01,2013-09-01 13:37:00,
2013-09-01 06:42:00,57.4,53.2,29.87,NNE,19,4.0,4.0,86,0.00,,---,0.00,5.00,VWS V14.01,2013-09-01 13:42:00,
2013-09-01 06:47:00,57.5,53.3,29.87,NNE,19,4.0,4.0,86,0.00,,---,0.00,5.00,VWS V14.01,2013-09-01 13:47:00,
2013-09-01 06:52:00,57.5,53.3,29.87,NNE,19,4.0,4.0,86,0.00,,---,0.00,7.00,VWS V14.01,2013-09-01 13:52:00,
2013-09-01 06:57:00,57.6,53.5,29.87,NNE,19,4.0,4.0,86,0.00,,---,0.00,9.00,VWS V14.01,2013-09-01 13:57:00,
2013-09-01 07:00:00,57.6,53.5,29.87,NNE,19,4.0,4.0,86,0.00,,---,0.00,9.00,VWS V14.01,2013-09-01 14:00:00,
2013-09-01 07:02:00,57.7,53.5,29.87,NNE,19,4.0,4.0,86,0.00,,---,0.00,11.00,VWS V14.01,2013-09-01 14:02:00,
2013-09-01 07:07:00,57.7,53.5,29.87,NNE,19,4.0,4.0,86,0.00,,---,0.00,12.00,VWS V14.01,2013-09-01 14:07:00,
2013-09-01 07:12:00,57.7,53.5,29.87,NNE,19,4.0,4.0,86,0.00,,---,0.00,18.00,VWS V14.01,2013-09-01 14:12:00,
2013-09-01 07:17:00,57.7,53.5,29.88,NNE,19,4.0,4.0,86,0.00,,---,0.00,26.00,VWS V14.01,2013-09-01 14:17:00,
2013-09-01 07:22:00,57.8,53.7,29.88,NNE,19,4.0,4.0,86,0.00,,---,0.00,33.00,VWS V14.01,2013-09-01 14:22:00,
2013-09-01 07:27:00,57.8,53.7,29.88,NNE,19,4.0,4.0,86,0.00,,---,0.00,40.00,VWS V14.01,2013-09-01 14:27:00,
2013-09-01 07:30:00,57.8,53.7,29.88,NNE,19,4.0,4.0,86,0.00,,---,0.00,37.00,VWS V14.01,2013-09-01 14:30:00,
2013-09-01 07:32:00,57.8,53.7,29.88,NNE,19,4.0,4.0,86,0.00,,---,0.00,49.00,VWS V14.01,2013-09-01 14:32:00,
2013-09-01 07:37:00,57.8,53.7,29.88,NNE,19,4.0,4.0,86,0.00,,---,0.00,28.00,VWS V14.01,2013-09-01 14:37:00,
2013-09-01 07:42:00,57.8,53.7,29.88,NNE,19,4.0,4.0,86,0.00,,---,0.00,9.00,VWS V14.01,2013-09-01 14:42:00,
2013-09-01 07:47:00,57.8,53.7,29.88,NNE,19,4.0,4.0,86,0.00,,---,0.00,18.00,VWS V14.01,2013-09-01 14:47:00,
2013-09-01 07:52:00,57.8,54.0,29.88,NNE,19,4.0,4.0,87,0.00,,---,0.00,42.00,VWS V14.01,2013-09-01 14:52:00,
2013-09-01 07:57:00,57.8,54.0,29.88,NNE,19,4.0,4.0,87,0.00,,---,0.00,58.00,VWS V14.01,2013-09-01 14:57:00,
2013-09-01 08:00:00,57.8,54.0,29.88,NNE,19,4.0,4.0,87,0.00,,---,0.00,46.00,VWS V14.01,2013-09-01 15:00:00,
2013-09-01 08:02:00,57.8,54.0,29.88,NNE,19,4.0,4.0,87,0.00,,---,0.00,40.00,VWS V14.01,2013-09-01 15:02:00,
2013-09-01 08:07:00,57.9,54.1,29.88,NNE,19,4.0,4.0,87,0.00,,---,0.00,44.00,VWS V14.01,2013-09-01 15:07:00,
2013-09-01 08:12:00,58.0,54.2,29.88,NNE,19,4.0,4.0,87,0.00,,---,0.00,35.00,VWS V14.01,2013-09-01 15:12:00,
2013-09-01 08:17:00,58.1,54.6,29.88,NNE,19,4.0,4.0,88,0.00,,---,0.00,30.00,VWS V14.01,2013-09-01 15:17:00,
2013-09-01 08:22:00,58.1,54.3,29.88,NNE,19,4.0,4.0,87,0.00,,---,0.00,33.00,VWS V14.01,2013-09-01 15:22:00,
2013-09-01 08:27:00,58.2,54.4,29.88,NNE,19,4.0,4.0,87,0.00,,---,0.00,37.00,VWS V14.01,2013-09-01 15:27:00,
2013-09-01 08:30:00,58.2,54.4,29.89,NNE,19,4.0,4.0,87,0.00,,---,0.00,33.00,VWS V14.01,2013-09-01 15:30:00,
2013-09-01 08:32:00,58.2,54.4,29.89,NNE,19,4.0,4.0,87,0.00,,---,0.00,39.00,VWS V14.01,2013-09-01 15:32:00,
2013-09-01 08:37:00,58.3,54.5,29.88,NNE,19,4.0,4.0,87,0.00,,---,0.00,39.00,VWS V14.01,2013-09-01 15:37:00,
2013-09-01 08:42:00,58.4,54.9,29.89,NNE,19,4.0,4.0,88,0.00,,---,0.00,49.00,VWS V14.01,2013-09-01 15:42:00,
2013-09-01 08:47:00,58.6,55.1,29.89,NNE,19,4.0,4.0,88,0.00,,---,0.00,51.00,VWS V14.01,2013-09-01 15:47:00,
2013-09-01 08:52:00,58.8,55.3,29.88,NNE,19,4.0,4.0,88,0.00,,---,0.00,60.00,VWS V14.01,2013-09-01 15:52:00,
2013-09-01 08:57:00,59.0,55.5,29.88,NNE,19,4.0,4.0,88,0.00,,---,0.00,67.00,VWS V14.01,2013-09-01 15:57:00,
2013-09-01 09:00:00,59.0,55.5,29.88,NNE,19,4.0,4.0,88,0.00,,---,0.00,63.00,VWS V14.01,2013-09-01 16:00:00,
2013-09-01 09:02:00,59.0,55.5,29.88,NNE,19,4.0,4.0,88,0.00,,---,0.00,56.00,VWS V14.01,2013-09-01 16:02:00,
2013-09-01 09:07:00,59.0,55.1,29.88,NNE,19,4.0,4.0,87,0.00,,---,0.00,77.00,VWS V14.01,2013-09-01 16:07:00,
2013-09-01 09:12:00,59.3,55.4,29.88,NNE,19,4.0,4.0,87,0.00,,---,0.00,56.00,VWS V14.01,2013-09-01 16:12:00,
2013-09-01 09:17:00,59.4,55.5,29.88,NNE,19,4.0,4.0,87,0.00,,---,0.00,54.00,VWS V14.01,2013-09-01 16:17:00,
2013-09-01 09:22:00,59.5,55.3,29.88,NNE,19,4.0,4.0,86,0.00,,---,0.00,51.00,VWS V14.01,2013-09-01 16:22:00,
2013-09-01 09:27:00,59.7,55.5,29.88,NNE,19,4.0,4.0,86,0.00,,---,0.00,56.00,VWS V14.01,2013-09-01 16:27:00,
2013-09-01 09:30:00,59.6,55.4,29.88,NNE,19,4.0,4.0,86,0.00,,---,0.00,54.00,VWS V14.01,2013-09-01 16:30:00,
2013-09-01 09:32:00,59.7,55.5,29.88,NNE,19,4.0,4.0,86,0.00,,---,0.00,51.00,VWS V14.01,2013-09-01 16:32:00,
2013-09-01 09:37:00,59.8,55.6,29.89,NNE,19,4.0,4.0,86,0.00,,---,0.00,56.00,VWS V14.01,2013-09-01 16:37:00,
2013-09-01 09:42:00,59.9,55.7,29.88,NNE,19,4.0,4.0,86,0.00,,---,0.00,65.00,VWS V14.01,2013-09-01 16:42:00,
2013-09-01 09:47:00,60.0,55.8,29.88,NNE,19,4.0,4.0,86,0.00,,---,0.00,72.00,VWS V14.01,2013-09-01 16:47:00,
2013-09-01 09:52:00,60.1,55.9,29.88,NNE,19,4.0,4.0,86,0.00,,---,0.00,93.00,VWS V14.01,2013-09-01 16:52:00,
2013-09-01 09:57:00,60.3,55.8,29.88,NNE,19,4.0,4.0,85,0.00,,---,0.00,100.00,VWS V14.01,2013-09-01 16:57:00,
2013-09-01 10:00:00,60.3,55.8,29.88,NNE,19,4.0,4.0,85,0.00,,---,0.00,88.00,VWS V14.01,2013-09-01 17:00:00,
2013-09-01 10:02:00,60.5,56.0,29.88,NNE,19,4.0,4.0,85,0.00,,---,0.00,197.00,VWS V14.01,2013-09-01 17:02:00,
2013-09-01 10:07:00,60.7,56.2,29.87,NNE,19,4.0,4.0,85,0.00,,---,0.00,206.00,VWS V14.01,2013-09-01 17:07:00,
2013-09-01 10:12:00,61.0,56.5,29.87,NNE,19,4.0,4.0,85,0.00,,---,0.00,160.00,VWS V14.01,2013-09-01 17:12:00,
2013-09-01 10:17:00,61.5,56.6,29.87,NNE,19,4.0,4.0,84,0.00,,---,0.00,195.00,VWS V14.01,2013-09-01 17:17:00,
2013-09-01 10:22:00,62.1,56.9,29.87,NNE,19,4.0,4.0,83,0.00,,---,0.00,102.00,VWS V14.01,2013-09-01 17:22:00,
2013-09-01 10:27:00,62.7,57.1,29.87,NNE,19,4.0,4.0,82,0.00,,---,0.00,91.00,VWS V14.01,2013-09-01 17:27:00,
2013-09-01 10:30:00,62.5,56.9,29.87,NNE,19,4.0,4.0,82,0.00,,---,0.00,91.00,VWS V14.01,2013-09-01 17:30:00,
2013-09-01 10:32:00,63.1,57.2,29.87,NNE,19,4.0,4.0,81,0.00,,---,0.00,88.00,VWS V14.01,2013-09-01 17:32:00,
2013-09-01 10:37:00,63.5,57.2,29.87,NNE,19,4.0,4.0,80,0.00,,---,0.00,83.00,VWS V14.01,2013-09-01 17:37:00,
2013-09-01 10:42:00,63.9,57.6,29.87,NNE,19,4.0,4.0,80,0.00,,---,0.00,81.00,VWS V14.01,2013-09-01 17:42:00,
2013-09-01 10:47:00,64.3,57.3,29.86,NNE,19,4.0,4.0,78,0.00,,---,0.00,81.00,VWS V14.01,2013-09-01 17:47:00,
2013-09-01 10:52:00,64.5,57.5,29.87,NNE,19,4.0,4.0,78,0.00,,---,0.00,81.00,VWS V14.01,2013-09-01 17:52:00,
2013-09-01 10:57:00,64.7,57.3,29.86,NNE,19,4.0,4.0,77,0.00,,---,0.00,76.00,VWS V14.01,2013-09-01 17:57:00,
2013-09-01 11:00:00,64.6,57.2,29.87,NNE,19,4.0,4.0,77,0.00,,---,0.00,76.00,VWS V14.01,2013-09-01 18:00:00,
2013-09-01 11:02:00,64.7,57.3,29.86,NNE,19,4.0,4.0,77,0.00,,---,0.00,72.00,VWS V14.01,2013-09-01 18:02:00,
2013-09-01 11:07:00,64.7,57.3,29.86,NNE,19,4.0,4.0,77,0.00,,---,0.00,70.00,VWS V14.01,2013-09-01 18:07:00,
2013-09-01 11:12:00,64.7,57.3,29.86,NNE,19,4.0,4.0,77,0.00,,---,0.00,69.00,VWS V14.01,2013-09-01 18:12:00,
2013-09-01 11:17:00,64.7,57.3,29.86,NNE,19,4.0,4.0,77,0.00,,---,0.00,67.00,VWS V14.01,2013-09-01 18:17:00,
2013-09-01 11:22:00,64.9,57.5,29.86,NNE,19,4.0,4.0,77,0.00,,---,0.00,63.00,VWS V14.01,2013-09-01 18:22:00,
2013-09-01 11:27:00,65.2,57.5,29.86,NNE,19,4.0,4.0,76,0.00,,---,0.00,60.00,VWS V14.01,2013-09-01 18:27:00,
2013-09-01 11:30:00,65.1,57.4,29.86,NNE,19,4.0,4.0,76,0.00,,---,0.00,62.00,VWS V14.01,2013-09-01 18:30:00,
2013-09-01 11:32:00,65.4,57.7,29.86,NNE,19,4.0,4.0,76,0.00,,---,0.00,58.00,VWS V14.01,2013-09-01 18:32:00,
2013-09-01 11:37:00,65.6,57.5,29.86,NNE,19,4.0,4.0,75,0.00,,---,0.00,56.00,VWS V14.01,2013-09-01 18:37:00,
2013-09-01 11:42:00,65.9,57.4,29.86,NNE,19,4.0,4.0,74,0.00,,---,0.00,77.00,VWS V14.01,2013-09-01 18:42:00,
2013-09-01 11:47:00,66.2,57.7,29.86,NNE,19,4.0,4.0,74,0.00,,---,0.00,67.00,VWS V14.01,2013-09-01 18:47:00,
2013-09-01 11:52:00,66.6,57.7,29.86,WSW,254,4.0,10.0,73,0.00,,---,0.00,79.00,VWS V14.01,2013-09-01 18:52:00,
2013-09-01 11:57:00,66.9,57.6,29.86,WSW,244,7.0,9.0,72,0.00,,---,0.00,54.00,VWS V14.01,2013-09-01 18:57:00,
2013-09-01 12:00:00,66.8,57.9,29.86,WSW,249,8.0,10.0,73,0.00,,---,0.00,56.00,VWS V14.01,2013-09-01 19:00:00,
2013-09-01 12:02:00,67.4,58.1,29.85,WNW,289,5.0,9.0,72,0.00,,---,0.00,47.00,VWS V14.01,2013-09-01 19:02:00,
2013-09-01 12:07:00,67.7,57.6,29.85,WNW,298,7.0,10.0,70,0.00,,---,0.00,46.00,VWS V14.01,2013-09-01 19:07:00,
2013-09-01 12:12:00,67.9,57.4,29.85,West,274,8.0,10.0,69,0.00,,---,0.00,46.00,VWS V14.01,2013-09-01 19:12:00,
2013-09-01 12:17:00,68.1,57.6,29.84,West,261,1.0,10.0,69,0.00,,---,0.00,44.00,VWS V14.01,2013-09-01 19:17:00,
2013-09-01 12:22:00,68.4,57.8,29.84,West,264,6.0,10.0,69,0.00,,---,0.00,44.00,VWS V14.01,2013-09-01 19:22:00,
2013-09-01 12:27:00,68.6,57.6,29.84,WNW,291,3.0,9.0,68,0.00,,---,0.00,42.00,VWS V14.01,2013-09-01 19:27:00,
2013-09-01 12:30:00,68.6,57.6,29.84,WNW,285,9.0,10.0,68,0.00,,---,0.00,42.00,VWS V14.01,2013-09-01 19:30:00,
2013-09-01 12:32:00,68.7,57.7,29.85,West,265,6.0,11.0,68,0.00,,---,0.00,42.00,VWS V14.01,2013-09-01 19:32:00,
2013-09-01 12:37:00,68.8,57.4,29.84,WNW,287,4.0,11.0,67,0.00,,---,0.00,40.00,VWS V14.01,2013-09-01 19:37:00,
2013-09-01 12:42:00,69.0,58.4,29.84,West,274,4.0,11.0,69,0.00,,---,0.00,40.00,VWS V14.01,2013-09-01 19:42:00,
2013-09-01 12:47:00,69.1,57.7,29.85,NW,320,6.0,11.0,67,0.00,,---,0.00,39.00,VWS V14.01,2013-09-01 19:47:00,
2013-09-01 12:52:00,69.2,58.2,29.85,NW,317,6.0,11.0,68,0.00,,---,0.00,39.00,VWS V14.01,2013-09-01 19:52:00,
2013-09-01 12:57:00,69.4,58.4,29.85,West,279,4.0,7.0,68,0.00,,---,0.00,39.00,VWS V14.01,2013-09-01 19:57:00,
2013-09-01 13:00:00,69.3,58.7,29.85,WNW,289,1.0,11.0,69,0.00,,---,0.00,39.00,VWS V14.01,2013-09-01 20:00:00,
2013-09-01 13:02:00,69.7,58.7,29.85,West,279,2.0,7.0,68,0.00,,---,0.00,39.00,VWS V14.01,2013-09-01 20:02:00,
2013-09-01 13:07:00,70.3,59.2,29.85,West,269,6.0,7.0,68,0.00,,---,0.00,42.00,VWS V14.01,2013-09-01 20:07:00,
2013-09-01 13:12:00,70.7,58.4,29.85,WSW,257,6.0,7.0,65,0.00,,---,0.00,33.00,VWS V14.01,2013-09-01 20:12:00,
2013-09-01 13:17:00,71.1,58.8,29.84,West,269,5.0,7.0,65,0.00,,---,0.00,42.00,VWS V14.01,2013-09-01 20:17:00,
2013-09-01 13:22:00,71.3,58.5,29.84,West,264,6.0,8.0,64,0.00,,---,0.00,37.00,VWS V14.01,2013-09-01 20:22:00,
2013-09-01 13:27:00,71.5,58.3,29.83,West,269,5.0,8.0,63,0.00,,---,0.00,35.00,VWS V14.01,2013-09-01 20:27:00,
2013-09-01 13:30:00,71.4,58.2,29.84,West,269,7.0,8.0,63,0.00,,---,0.00,35.00,VWS V14.01,2013-09-01 20:30:00,
2013-09-01 13:32:00,71.7,58.9,29.83,West,264,4.0,9.0,64,0.00,,---,0.00,33.00,VWS V14.01,2013-09-01 20:32:00,
2013-09-01 13:37:00,72.0,59.2,29.83,SW,230,1.0,9.0,64,0.00,,---,0.00,33.00,VWS V14.01,2013-09-01 20:37:00,
2013-09-01 13:42:00,72.2,58.9,29.83,WSW,248,5.0,9.0,63,0.00,,---,0.00,32.00,VWS V14.01,2013-09-01 20:42:00,
2013-09-01 13:47:00,72.6,58.8,29.83,WSW,242,5.0,9.0,62,0.00,,---,0.00,32.00,VWS V14.01,2013-09-01 20:47:00,
2013-09-01 13:52:00,72.9,58.7,29.83,WNW,287,5.0,9.0,61,0.00,,---,0.00,30.00,VWS V14.01,2013-09-01 20:52:00,
2013-09-01 13:57:00,73.1,59.3,29.83,WSW,257,1.0,7.0,62,0.00,,---,0.00,30.00,VWS V14.01,2013-09-01 20:57:00,
2013-09-01 14:00:00,73.0,59.2,29.83,WSW,248,2.0,9.0,62,0.00,,---,0.00,30.00,VWS V14.01,2013-09-01 21:00:00,
2013-09-01 14:02:00,73.4,59.2,29.82,West,269,3.0,7.0,61,0.00,,---,0.00,30.00,VWS V14.01,2013-09-01 21:02:00,
2013-09-01 14:07:00,73.8,59.1,29.82,West,274,7.0,7.0,60,0.00,,---,0.00,30.00,VWS V14.01,2013-09-01 21:07:00,
2013-09-01 14:12:00,74.1,58.9,29.82,West,260,5.0,7.0,59,0.00,,---,0.00,30.00,VWS V14.01,2013-09-01 21:12:00,
2013-09-01 14:17:00,74.4,59.2,29.82,West,264,6.0,7.0,59,0.00,,---,0.00,32.00,VWS V14.01,2013-09-01 21:17:00,
2013-09-01 14:22:00,74.6,59.3,29.82,WSW,243,5.0,8.0,59,0.00,,---,0.00,19.00,VWS V14.01,2013-09-01 21:22:00,
2013-09-01 14:27:00,74.7,58.5,29.82,WSW,241,4.0,6.0,57,0.00,,---,0.00,33.00,VWS V14.01,2013-09-01 21:27:00,
2013-09-01 14:30:00,74.7,59.4,29.82,WSW,243,4.0,8.0,59,0.00,,---,0.00,33.00,VWS V14.01,2013-09-01 21:30:00,
2013-09-01 14:32:00,74.8,58.6,29.82,SW,226,0.0,8.0,57,0.00,,---,0.00,54.00,VWS V14.01,2013-09-01 21:32:00,
2013-09-01 14:37:00,74.9,59.1,29.82,SW,225,0.0,8.0,58,0.00,,---,0.00,49.00,VWS V14.01,2013-09-01 21:37:00,
2013-09-01 14:42:00,75.1,58.8,29.82,WSW,237,0.0,8.0,57,0.00,,---,0.00,51.00,VWS V14.01,2013-09-01 21:42:00,
2013-09-01 14:47:00,75.2,59.4,29.82,SW,232,6.0,8.0,58,0.00,,---,0.00,58.00,VWS V14.01,2013-09-01 21:47:00,
2013-09-01 14:52:00,75.3,59.5,29.82,SSW,207,6.0,8.0,58,0.00,,---,0.00,54.00,VWS V14.01,2013-09-01 21:52:00,
2013-09-01 14:57:00,75.5,60.2,29.82,SSW,211,4.0,6.0,59,0.00,,---,0.00,51.00,VWS V14.01,2013-09-01 21:57:00,
2013-09-01 15:00:00,75.5,59.7,29.82,SSW,207,4.0,8.0,58,0.00,,---,0.00,51.00,VWS V14.01,2013-09-01 22:00:00,
2013-09-01 15:02:00,75.7,58.9,29.82,WSW,239,1.0,7.0,56,0.00,,---,0.00,51.00,VWS V14.01,2013-09-01 22:02:00,
2013-09-01 15:07:00,75.9,58.6,29.82,WSW,252,2.0,8.0,55,0.00,,---,0.00,47.00,VWS V14.01,2013-09-01 22:07:00,
2013-09-01 15:12:00,75.9,59.1,29.82,WSW,247,0.0,8.0,56,0.00,,---,0.00,39.00,VWS V14.01,2013-09-01 22:12:00,
2013-09-01 15:17:00,75.9,58.1,29.81,SW,233,1.0,8.0,54,0.00,,---,0.00,44.00,VWS V14.01,2013-09-01 22:17:00,
2013-09-01 15:22:00,75.8,58.5,29.81,SW,231,0.0,8.0,55,0.00,,---,0.00,46.00,VWS V14.01,2013-09-01 22:22:00,
2013-09-01 15:27:00,75.9,59.1,29.81,WSW,245,7.0,7.0,56,0.00,,---,0.00,49.00,VWS V14.01,2013-09-01 22:27:00,
2013-09-01 15:30:00,75.9,58.6,29.81,SW,232,2.0,8.0,55,0.00,,---,0.00,46.00,VWS V14.01,2013-09-01 22:30:00,
2013-09-01 15:32:00,76.0,59.2,29.81,WSW,245,1.0,7.0,56,0.00,,---,0.00,56.00,VWS V14.01,2013-09-01 22:32:00,
2013-09-01 15:37:00,76.0,59.2,29.81,WSW,243,0.0,7.0,56,0.00,,---,0.00,47.00,VWS V14.01,2013-09-01 22:37:00,
2013-09-01 15:42:00,76.0,58.7,29.80,WSW,240,1.0,7.0,55,0.00,,---,0.00,51.00,VWS V14.01,2013-09-01 22:42:00,
2013-09-01 15:47:00,76.4,59.1,29.80,WSW,239,4.0,7.0,55,0.00,,---,0.00,58.00,VWS V14.01,2013-09-01 22:47:00,
2013-09-01 15:52:00,76.9,58.5,29.80,SW,227,0.0,8.0,53,0.00,,---,0.00,60.00,VWS V14.01,2013-09-01 22:52:00,
2013-09-01 15:57:00,77.4,58.4,29.80,SW,219,4.0,8.0,52,0.00,,---,0.00,49.00,VWS V14.01,2013-09-01 22:57:00,
2013-09-01 16:00:00,77.3,58.8,29.80,SW,235,5.0,8.0,53,0.00,,---,0.00,51.00,VWS V14.01,2013-09-01 23:00:00,
2013-09-01 16:02:00,78.0,59.0,29.80,SW,216,7.0,8.0,52,0.00,,---,0.00,44.00,VWS V14.01,2013-09-01 23:02:00,
2013-09-01 16:07:00,78.2,58.6,29.80,SW,216,0.0,8.0,51,0.00,,---,0.00,32.00,VWS V14.01,2013-09-01 23:07:00,
2013-09-01 16:12:00,78.4,58.8,29.80,SSW,199,8.0,11.0,51,0.00,,---,0.00,26.00,VWS V14.01,2013-09-01 23:12:00,
2013-09-01 16:16:00,78.4,58.2,29.80,SSW,197,1.0,11.0,50,0.00,,---,0.00,25.00,VWS V14.01,2013-09-01 23:16:00,
2013-09-01 16:22:00,78.3,58.2,29.80,SSW,198,5.0,11.0,50,0.00,,---,0.00,26.00,VWS V14.01,2013-09-01 23:22:00,
2013-09-01 16:26:00,78.3,58.2,29.80,SSW,195,7.0,7.0,50,0.00,,---,0.00,25.00,VWS V14.01,2013-09-01 23:26:00,
2013-09-01 16:30:00,78.3,58.2,29.80,SSW,194,5.0,11.0,50,0.00,,---,0.00,25.00,VWS V14.01,2013-09-01 23:30:00,
2013-09-01 16:31:00,78.4,59.3,29.80,SSW,213,9.0,9.0,52,0.00,,---,0.00,26.00,VWS V14.01,2013-09-01 23:31:00,
2013-09-01 16:36:00,78.6,59.5,29.80,SW,231,6.0,9.0,52,0.00,,---,0.00,25.00,VWS V14.01,2013-09-01 23:36:00,
2013-09-01 16:41:00,78.7,59.1,29.80,West,274,6.0,9.0,51,0.00,,---,0.00,25.00,VWS V14.01,2013-09-01 23:41:00,
2013-09-01 16:46:00,78.9,58.7,29.80,SW,217,1.0,9.0,50,0.00,,---,0.00,28.00,VWS V14.01,2013-09-01 23:46:00,
2013-09-01 16:51:00,79.0,58.8,29.80,WSW,250,4.0,9.0,50,0.00,,---,0.00,28.00,VWS V14.01,2013-09-01 23:51:00,
2013-09-01 16:56:00,78.9,58.1,29.80,SW,226,3.0,4.0,49,0.00,,---,0.00,25.00,VWS V14.01,2013-09-01 23:56:00,
2013-09-01 17:00:00,79.0,58.2,29.80,SW,226,3.0,9.0,49,0.00,,---,0.00,25.00,VWS V14.01,2013-09-02 00:00:00,
2013-09-01 17:01:00,79.0,58.8,29.80,WSW,254,5.0,7.0,50,0.00,,---,0.00,25.00,VWS V14.01,2013-09-02 00:01:00,
2013-09-01 17:06:00,79.1,58.3,29.80,SW,223,3.0,8.0,49,0.00,,---,0.00,25.00,VWS V14.01,2013-09-02 00:06:00,
2013-09-01 17:11:00,79.1,58.3,29.80,SW,231,1.0,8.0,49,0.00,,---,0.00,25.00,VWS V14.01,2013-09-02 00:11:00,
2013-09-01 17:16:00,79.1,58.9,29.79,SW,226,0.0,8.0,50,0.00,,---,0.00,25.00,VWS V14.01,2013-09-02 00:16:00,
2013-09-01 17:21:00,79.1,58.3,29.79,SW,225,0.0,8.0,49,0.00,,---,0.00,23.00,VWS V14.01,2013-09-02 00:21:00,
2013-09-01 17:26:00,79.1,58.3,29.79,SW,214,1.0,8.0,49,0.00,,---,0.00,23.00,VWS V14.01,2013-09-02 00:26:00,
2013-09-01 17:30:00,79.1,58.3,29.79,SW,214,8.0,9.0,49,0.00,,---,0.00,23.00,VWS V14.01,2013-09-02 00:30:00,
2013-09-01 17:31:00,79.1,58.9,29.79,SW,220,1.0,8.0,50,0.00,,---,0.00,23.00,VWS V14.01,2013-09-02 00:31:00,
2013-09-01 17:36:00,79.2,59.0,29.79,WSW,242,6.0,8.0,50,0.00,,---,0.00,23.00,VWS V14.01,2013-09-02 00:36:00,
2013-09-01 17:41:00,79.2,59.0,29.79,WSW,253,4.0,8.0,50,0.00,,---,0.00,23.00,VWS V14.01,2013-09-02 00:41:00,
2013-09-01 17:46:00,79.2,59.0,29.79,West,260,2.0,8.0,50,0.00,,---,0.00,23.00,VWS V14.01,2013-09-02 00:46:00,
2013-09-01 17:51:00,79.1,58.9,29.79,WSW,250,6.0,10.0,50,0.00,,---,0.00,21.00,VWS V14.01,2013-09-02 00:51:00,
2013-09-01 17:56:00,79.1,59.4,29.79,SW,233,6.0,7.0,51,0.00,,---,0.00,21.00,VWS V14.01,2013-09-02 00:56:00,
2013-09-01 18:00:00,79.1,58.9,29.79,WSW,241,6.0,10.0,50,0.00,,---,0.00,21.00,VWS V14.01,2013-09-02 01:00:00,
2013-09-01 18:01:00,79.0,59.3,29.79,SW,227,7.0,9.0,51,0.00,,---,0.00,21.00,VWS V14.01,2013-09-02 01:01:00,
2013-09-01 18:06:00,78.9,59.2,29.79,WSW,254,5.0,9.0,51,0.00,,---,0.00,21.00,VWS V14.01,2013-09-02 01:06:00,
2013-09-01 18:11:00,78.8,59.2,29.79,WSW,243,7.0,9.0,51,0.00,,---,0.00,21.00,VWS V14.01,2013-09-02 01:11:00,
2013-09-01 18:16:00,78.7,59.1,29.79,SW,235,6.0,9.0,51,0.00,,---,0.00,19.00,VWS V14.01,2013-09-02 01:16:00,
2013-09-01 18:21:00,78.7,59.6,29.79,WSW,250,5.0,10.0,52,0.00,,---,0.00,19.00,VWS V14.01,2013-09-02 01:21:00,
2013-09-01 18:26:00,78.4,59.3,29.79,SW,234,10.0,11.0,52,0.00,,---,0.00,18.00,VWS V14.01,2013-09-02 01:26:00,
2013-09-01 18:30:00,78.5,59.4,29.79,WSW,243,1.0,13.0,52,0.00,,---,0.00,18.00,VWS V14.01,2013-09-02 01:30:00,
2013-09-01 18:31:00,78.2,58.6,29.79,WSW,241,6.0,11.0,51,0.00,,---,0.00,18.00,VWS V14.01,2013-09-02 01:31:00,
2013-09-01 18:36:00,77.9,58.9,29.79,WSW,242,6.0,11.0,52,0.00,,---,0.00,16.00,VWS V14.01,2013-09-02 01:36:00,
2013-09-01 18:41:00,77.7,58.7,29.79,WSW,255,6.0,11.0,52,0.00,,---,0.00,14.00,VWS V14.01,2013-09-02 01:41:00,
2013-09-01 18:46:00,77.3,58.3,29.79,West,269,8.0,11.0,52,0.00,,---,0.00,12.00,VWS V14.01,2013-09-02 01:46:00,
2013-09-01 18:51:00,76.9,58.0,29.79,West,269,6.0,11.0,52,0.00,,---,0.00,11.00,VWS V14.01,2013-09-02 01:51:00,
2013-09-01 18:56:00,76.4,58.0,29.79,WSW,258,8.0,8.0,53,0.00,,---,0.00,9.00,VWS V14.01,2013-09-02 01:56:00,
2013-09-01 19:00:00,76.5,58.1,29.79,West,262,1.0,11.0,53,0.00,,---,0.00,9.00,VWS V14.01,2013-09-02 02:00:00,
2013-09-01 19:01:00,76.0,57.7,29.80,WSW,256,4.0,8.0,53,0.00,,---,0.00,7.00,VWS V14.01,2013-09-02 02:01:00,
2013-09-01 19:06:00,75.6,57.3,29.80,West,262,1.0,8.0,53,0.00,,---,0.00,5.00,VWS V14.01,2013-09-02 02:06:00,
2013-09-01 19:11:00,75.1,56.8,29.80,West,262,0.0,8.0,53,0.00,,---,0.00,5.00,VWS V14.01,2013-09-02 02:11:00,
2013-09-01 19:16:00,74.7,57.0,29.80,West,262,0.0,8.0,54,0.00,,---,0.00,5.00,VWS V14.01,2013-09-02 02:16:00,
2013-09-01 19:21:00,74.3,57.1,29.80,West,269,4.0,8.0,55,0.00,,---,0.00,5.00,VWS V14.01,2013-09-02 02:21:00,
2013-09-01 19:26:00,73.9,57.2,29.81,West,274,1.0,1.0,56,0.00,,---,0.00,0.00,VWS V14.01,2013-09-02 02:26:00,
2013-09-01 19:30:00,74.0,57.3,29.81,West,274,1.0,8.0,56,0.00,,---,0.00,0.00,VWS V14.01,2013-09-02 02:30:00,
2013-09-01 19:31:00,73.5,57.3,29.81,West,274,1.0,1.0,57,0.00,,---,0.00,0.00,VWS V14.01,2013-09-02 02:31:00,
2013-09-01 19:36:00,73.1,57.5,29.81,West,274,1.0,1.0,58,0.00,,---,0.00,0.00,VWS V14.01,2013-09-02 02:36:00,
2013-09-01 19:41:00,72.7,57.6,29.81,West,274,1.0,1.0,59,0.00,,---,0.00,0.00,VWS V14.01,2013-09-02 02:41:00,
2013-09-01 19:46:00,72.2,57.1,29.81,West,274,1.0,1.0,59,0.00,,---,0.00,0.00,VWS V14.01,2013-09-02 02:46:00,
2013-09-01 19:51:00,71.8,57.2,29.81,West,274,1.0,1.0,60,0.00,,---,0.00,0.00,VWS V14.01,2013-09-02 02:51:00,
2013-09-01 19:56:00,71.3,57.2,29.81,West,274,1.0,1.0,61,0.00,,---,0.00,0.00,VWS V14.01,2013-09-02 02:56:00,
2013-09-01 20:00:00,71.4,57.3,29.81,West,274,1.0,1.0,61,0.00,,---,0.00,0.00,VWS V14.01,2013-09-02 03:00:00,
2013-09-01 20:01:00,70.9,56.8,29.82,West,274,1.0,1.0,61,0.00,,---,0.00,0.00,VWS V14.01,2013-09-02 03:01:00,
2013-09-01 20:06:00,70.4,56.3,29.82,West,274,1.0,1.0,61,0.00,,---,0.00,0.00,VWS V14.01,2013-09-02 03:06:00,
2013-09-01 20:11:00,70.1,56.0,29.82,West,274,1.0,1.0,61,0.00,,---,0.00,0.00,VWS V14.01,2013-09-02 03:11:00,
2013-09-01 20:16:00,69.7,56.1,29.82,West,274,1.0,1.0,62,0.00,,---,0.00,0.00,VWS V14.01,2013-09-02 03:16:00,
2013-09-01 20:21:00,69.3,55.7,29.83,West,274,1.0,1.0,62,0.00,,---,0.00,0.00,VWS V14.01,2013-09-02 03:21:00,
2013-09-01 20:26:00,68.9,55.8,29.82,West,274,1.0,1.0,63,0.00,,---,0.00,0.00,VWS V14.01,2013-09-02 03:26:00,
2013-09-01 20:30:00,69.0,55.9,29.83,West,274,1.0,1.0,63,0.00,,---,0.00,0.00,VWS V14.01,2013-09-02 03:30:00,
2013-09-01 20:31:00,68.6,55.5,29.83,West,274,1.0,1.0,63,0.00,,---,0.00,0.00,VWS V14.01,2013-09-02 03:31:00,
2013-09-01 20:36:00,68.4,55.3,29.83,West,274,1.0,1.0,63,0.00,,---,0.00,0.00,VWS V14.01,2013-09-02 03:36:00,
2013-09-01 20:41:00,68.2,55.1,29.83,West,274,1.0,1.0,63,0.00,,---,0.00,0.00,VWS V14.01,2013-09-02 03:41:00,
2013-09-01 20:46:00,68.0,55.4,29.83,West,274,1.0,1.0,64,0.00,,---,0.00,0.00,VWS V14.01,2013-09-02 03:46:00,
2013-09-01 20:51:00,67.9,55.3,29.83,West,274,1.0,1.0,64,0.00,,---,0.00,0.00,VWS V14.01,2013-09-02 03:51:00,
2013-09-01 20:56:00,67.8,55.2,29.84,West,274,1.0,1.0,64,0.00,,---,0.00,0.00,VWS V14.01,2013-09-02 03:56:00,
2013-09-01 21:00:00,67.8,55.2,29.84,West,274,1.0,1.0,64,0.00,,---,0.00,0.00,VWS V14.01,2013-09-02 04:00:00,
2013-09-01 21:01:00,67.7,55.1,29.84,West,274,1.0,1.0,64,0.00,,---,0.00,0.00,VWS V14.01,2013-09-02 04:01:00,
2013-09-01 21:06:00,67.4,55.2,29.84,West,274,1.0,1.0,65,0.00,,---,0.00,0.00,VWS V14.01,2013-09-02 04:06:00,
2013-09-01 21:11:00,67.2,55.0,29.84,West,274,1.0,1.0,65,0.00,,---,0.00,0.00,VWS V14.01,2013-09-02 04:11:00,
2013-09-01 21:16:00,67.0,54.9,29.84,West,274,1.0,1.0,65,0.00,,---,0.00,0.00,VWS V14.01,2013-09-02 04:16:00,
2013-09-01 21:21:00,66.9,54.8,29.84,West,274,1.0,1.0,65,0.00,,---,0.00,0.00,VWS V14.01,2013-09-02 04:21:00,
2013-09-01 21:26:00,66.8,54.7,29.84,West,274,1.0,1.0,65,0.00,,---,0.00,0.00,VWS V14.01,2013-09-02 04:26:00,
2013-09-01 21:30:00,66.8,54.7,29.84,West,274,1.0,1.0,65,0.00,,---,0.00,0.00,VWS V14.01,2013-09-02 04:30:00,
2013-09-01 21:31:00,66.7,55.0,29.84,West,274,1.0,1.0,66,0.00,,---,0.00,0.00,VWS V14.01,2013-09-02 04:31:00,
2013-09-01 21:36:00,66.6,54.9,29.84,West,274,1.0,1.0,66,0.00,,---,0.00,0.00,VWS V14.01,2013-09-02 04:36:00,
2013-09-01 21:41:00,66.5,54.8,29.84,West,274,1.0,1.0,66,0.00,,---,0.00,0.00,VWS V14.01,2013-09-02 04:41:00,
2013-09-01 21:46:00,66.5,54.8,29.84,West,274,1.0,1.0,66,0.00,,---,0.00,0.00,VWS V14.01,2013-09-02 04:46:00,
2013-09-01 21:51:00,66.4,54.7,29.84,West,274,1.0,1.0,66,0.00,,---,0.00,0.00,VWS V14.01,2013-09-02 04:51:00,
2013-09-01 21:56:00,66.3,54.6,29.84,West,274,1.0,1.0,66,0.00,,---,0.00,0.00,VWS V14.01,2013-09-02 04:56:00,
2013-09-01 22:00:00,66.4,54.7,29.84,West,274,1.0,1.0,66,0.00,,---,0.00,0.00,VWS V14.01,2013-09-02 05:00:00,
2013-09-01 22:01:00,66.3,54.6,29.84,West,274,1.0,1.0,66,0.00,,---,0.00,0.00,VWS V14.01,2013-09-02 05:01:00,
2013-09-01 22:06:00,66.2,54.5,29.84,West,274,1.0,1.0,66,0.00,,---,0.00,0.00,VWS V14.01,2013-09-02 05:06:00,
2013-09-01 22:11:00,66.1,54.8,29.84,West,274,1.0,1.0,67,0.00,,---,0.00,0.00,VWS V14.01,2013-09-02 05:11:00,
2013-09-01 22:16:00,66.0,54.7,29.84,West,274,1.0,1.0,67,0.00,,---,0.00,0.00,VWS V14.01,2013-09-02 05:16:00,
2013-09-01 22:21:00,65.9,55.0,29.84,West,274,1.0,1.0,68,0.00,,---,0.00,0.00,VWS V14.01,2013-09-02 05:21:00,
2013-09-01 22:26:00,65.8,55.0,29.84,West,274,1.0,1.0,68,0.00,,---,0.00,0.00,VWS V14.01,2013-09-02 05:26:00,
2013-09-01 22:30:00,65.8,55.0,29.84,West,274,1.0,1.0,68,0.00,,---,0.00,0.00,VWS V14.01,2013-09-02 05:30:00,
2013-09-01 22:31:00,65.7,55.3,29.85,West,274,1.0,1.0,69,0.00,,---,0.00,0.00,VWS V14.01,2013-09-02 05:31:00,
2013-09-01 22:36:00,65.6,55.2,29.85,West,274,1.0,1.0,69,0.00,,---,0.00,0.00,VWS V14.01,2013-09-02 05:36:00,
2013-09-01 22:41:00,65.6,55.2,29.85,West,274,1.0,1.0,69,0.00,,---,0.00,0.00,VWS V14.01,2013-09-02 05:41:00,
2013-09-01 22:46:00,65.6,55.2,29.85,West,274,1.0,1.0,69,0.00,,---,0.00,0.00,VWS V14.01,2013-09-02 05:46:00,
2013-09-01 22:51:00,65.5,55.1,29.85,West,274,1.0,1.0,69,0.00,,---,0.00,0.00,VWS V14.01,2013-09-02 05:51:00,
2013-09-01 22:56:00,65.5,55.5,29.85,West,274,1.0,1.0,70,0.00,,---,0.00,0.00,VWS V14.01,2013-09-02 05:56:00,
2013-09-01 23:00:00,65.5,55.5,29.85,West,274,1.0,1.0,70,0.00,,---,0.00,0.00,VWS V14.01,2013-09-02 06:00:00,
2013-09-01 23:01:00,65.5,55.5,29.85,West,274,1.0,1.0,70,0.00,,---,0.00,0.00,VWS V14.01,2013-09-02 06:01:00,
2013-09-01 23:06:00,65.6,55.6,29.85,West,274,1.0,1.0,70,0.00,,---,0.00,0.00,VWS V14.01,2013-09-02 06:06:00,
2013-09-01 23:11:00,65.5,55.5,29.86,West,274,1.0,1.0,70,0.00,,---,0.00,0.00,VWS V14.01,2013-09-02 06:11:00,
2013-09-01 23:16:00,65.5,55.5,29.86,West,274,1.0,1.0,70,0.00,,---,0.00,0.00,VWS V14.01,2013-09-02 06:16:00,
2013-09-01 23:21:00,65.5,55.5,29.86,West,274,1.0,1.0,70,0.00,,---,0.00,0.00,VWS V14.01,2013-09-02 06:21:00,
2013-09-01 23:26:00,65.4,55.8,29.86,West,274,1.0,1.0,71,0.00,,---,0.00,0.00,VWS V14.01,2013-09-02 06:26:00,
2013-09-01 23:30:00,65.4,55.8,29.86,West,274,1.0,1.0,71,0.00,,---,0.00,0.00,VWS V14.01,2013-09-02 06:30:00,
2013-09-01 23:31:00,65.2,55.6,29.85,West,274,1.0,1.0,71,0.00,,---,0.00,0.00,VWS V14.01,2013-09-02 06:31:00,
2013-09-01 23:36:00,65.0,55.4,29.85,West,274,1.0,1.0,71,0.00,,---,0.00,0.00,VWS V14.01,2013-09-02 06:36:00,
2013-09-01 23:41:00,64.8,55.2,29.86,West,274,1.0,1.0,71,0.00,,---,0.00,0.00,VWS V14.01,2013-09-02 06:41:00,
2013-09-01 23:46:00,64.6,55.4,29.86,West,274,1.0,1.0,72,0.00,,---,0.00,0.00,VWS V14.01,2013-09-02 06:46:00,
2013-09-01 23:51:00,64.3,55.1,29.85,West,274,1.0,1.0,72,0.00,,---,0.00,0.00,VWS V14.01,2013-09-02 06:51:00,
2013-09-01 23:56:00,64.1,54.9,29.86,West,274,1.0,1.0,72,0.00,,---,0.00,0.00,VWS V14.01,2013-09-02 06:56:00,